Waterloo, IA

11:26 PM CST on January 21, 2018 (GMT -0600)
Waterloo Municipal

Weather History for KALO - June, 2014

Change the Weather History Date:

Monday, June 30, 2014

  Actual Average Record
Temperature  
Mean Temperature 70 °F 73 °F  
Max Temperature 78 °F 84 °F 103 °F (1931)
Min Temperature 61 °F 62 °F 45 °F (1943)
Degree Days  
Heating Degree Days 0 0  
Month to date heating degree days 7 23  
Since 1 June heating degree days 7 26  
Since 1 July heating degree days 8325 7030  
Cooling Degree Days 5 9  
Month to date cooling degree days 171 177  
Year to date cooling degree days 238 233  
Since 1 June cooling degree days 171 177  
Growing Degree Days 20 (Base 50)    
Moisture  
Dew Point 66 °F    
Average Humidity 88    
Maximum Humidity 100    
Minimum Humidity 76    
Precipitation  
Precipitation 1.66 in 0.18 in 1.73 in (1905)
Month to date precipitation 9.63 4.98  
Year to date precipitation 23.66 17.10  
Snow  
Snow 0.00 in 0.00 in - ()
Month to date snowfall 0.0 0.0  
Since 1 June snowfall 0.0 0.0  
Since 1 July snowfall 58.0 35.3  
Snow Depth 0.00 in    
Sea Level Pressure  
Sea Level Pressure 29.72 in    
Wind  
Wind Speed 7 mph (SSE)    
Max Wind Speed 43 mph    
Max Gust Speed 58 mph    
Visibility 8 miles    
Events Fog , Rain    
T = Trace of Precipitation, MM = Missing Value Source: NWS Daily Summary

Daily Weather History Graph

Daily Weather History Graph

Search for Another Location

Airport or City:

Trip Planner

Search our weather history database for the weather conditions in past years. The results will help you decide how hot, cold, wet, or windy it might be!

Date:

Astronomy

Jun. 30, 2014 Rise Set
Actual Time 5:35 AM CDT 8:51 PM CDT
Civil Twilight 5:00 AM CDT 9:25 PM CDT
Nautical Twilight 4:15 AM CDT 10:10 PM CDT
Astronomical Twilight 3:20 AM CDT 11:05 PM CDT
Moon 8:53 AM CDT (6/30) 10:39 PM CDT (6/30)
Length of Visible Light 16h 25m
Length of Day
15h 15m
Waxing Crescent, 10% of the Moon is Illuminated
Jun 30
Waxing Crescent
Jul 5
First Quarter
Jul 12
Full
Jul 18
Last Quarter
Jul 26
New

Hourly Weather History & Observations

Time (CDT) Temp. Dew Point Humidity Pressure Visibility Wind Dir Wind Speed Gust Speed Precip Events Conditions
12:54 AM 69.1 °F 68.0 °F 96% 29.77 in 10.0 mi ESE 5.8 mph - N/A   Scattered Clouds
1:54 AM 70.0 °F 68.0 °F 93% 29.77 in 10.0 mi Calm Calm - N/A   Mostly Cloudy
2:21 AM 70.0 °F 68.0 °F 93% 29.78 in 10.0 mi Calm Calm - N/A   Overcast
2:54 AM 71.1 °F 69.1 °F 93% 29.76 in 10.0 mi South 3.5 mph - N/A   Overcast
3:21 AM 70.0 °F 68.0 °F 93% 29.77 in 9.0 mi Calm Calm - N/A   Scattered Clouds
3:54 AM 69.1 °F 68.0 °F 96% 29.75 in 10.0 mi Calm Calm - N/A   Clear
4:54 AM 69.1 °F 66.9 °F 93% 29.72 in 10.0 mi SSE 10.4 mph - N/A   Partly Cloudy
5:54 AM 70.0 °F 66.9 °F 90% 29.78 in 10.0 mi NNW 3.5 mph - 0.00 in Rain Light Rain
6:15 AM 70.0 °F 68.0 °F 93% 29.78 in 10.0 mi Calm Calm - 0.00 in Rain Light Rain
6:23 AM 70.0 °F 68.0 °F 93% 29.79 in 10.0 mi Calm Calm - 0.00 in   Scattered Clouds
6:54 AM 69.1 °F 68.0 °F 96% 29.75 in 10.0 mi SE 4.6 mph - 0.00 in   Partly Cloudy
7:54 AM 70.0 °F 69.1 °F 97% 29.77 in 10.0 mi ESE 8.1 mph - 0.00 in Rain Light Rain
8:54 AM 71.1 °F 69.1 °F 93% 29.75 in 10.0 mi ESE 4.6 mph - 0.00 in   Clear
9:54 AM 77.0 °F 69.1 °F 76% 29.75 in 10.0 mi SE 8.1 mph - N/A   Clear
10:54 AM 77.0 °F 70.0 °F 79% 29.72 in 10.0 mi SSE 9.2 mph - N/A   Clear
11:54 AM 75.9 °F 68.0 °F 76% 29.71 in 10.0 mi SSE 11.5 mph - 0.00 in Rain Light Rain
12:54 PM 77.0 °F 69.1 °F 76% 29.73 in 10.0 mi SW 3.5 mph - 0.00 in   Scattered Clouds
1:15 PM 75.9 °F 70.0 °F 82% 29.70 in 10.0 mi ESE 3.5 mph - N/A   Mostly Cloudy
1:54 PM 73.9 °F 71.1 °F 91% 29.65 in 10.0 mi North 12.7 mph - 0.00 in Rain Light Rain
2:04 PM 73.0 °F 71.1 °F 93% 29.74 in 2.5 mi WNW 23.0 mph 29.9 mph 0.03 in Rain Heavy Rain
2:07 PM 70.0 °F 69.1 °F 97% 29.73 in 0.8 mi NW 34.5 mph 47.2 mph 0.18 in Rain Heavy Rain
2:18 PM 63.0 °F 62.1 °F 97% 29.82 in 0.5 mi WNW 20.7 mph 57.5 mph 0.94 in Fog , Rain Heavy Rain
2:23 PM 63.0 °F 63.0 °F 100% 29.81 in 1.0 mi NW 6.9 mph 40.3 mph 1.12 in Rain Heavy Rain
2:33 PM 64.0 °F 64.0 °F 100% 29.77 in 3.0 mi North 11.5 mph - 1.25 in Rain Rain
2:54 PM 64.0 °F 62.1 °F 93% 29.72 in 9.0 mi ENE 17.3 mph - 1.27 in Rain Light Rain
3:54 PM 64.9 °F 62.1 °F 90% 29.61 in 9.0 mi East 10.4 mph - 0.07 in Rain Light Rain
4:54 PM 66.0 °F 63.0 °F 90% 29.61 in 10.0 mi SSE 11.5 mph - 0.06 in   Overcast
5:50 PM 64.4 °F 64.4 °F 100% 29.66 in 2.0 mi ESE 4.6 mph - 0.19 in Rain Heavy Rain
5:54 PM 64.9 °F 64.0 °F 97% 29.64 in 3.0 mi East 3.5 mph - 0.22 in Rain Heavy Rain
6:43 PM 64.9 °F 64.0 °F 97% 29.70 in 10.0 mi NW 6.9 mph - 0.04 in   Overcast
6:54 PM 64.9 °F 64.0 °F 97% 29.66 in 10.0 mi North 5.8 mph - 0.04 in   Overcast
7:08 PM 64.9 °F 64.0 °F 97% 29.67 in 10.0 mi NW 5.8 mph - N/A   Overcast
7:54 PM 64.9 °F 64.0 °F 97% 29.67 in 10.0 mi West 4.6 mph - 0.00 in   Overcast
8:54 PM 64.0 °F 63.0 °F 96% 29.61 in 10.0 mi SSW 4.6 mph - N/A   Clear
9:32 PM 64.0 °F 63.0 °F 96% 29.67 in 10.0 mi SSW 3.5 mph - N/A   Clear
9:54 PM 63.0 °F 62.1 °F 97% 29.66 in 9.0 mi Calm Calm - N/A   Clear
10:05 PM 62.1 °F 62.1 °F 100% 29.67 in 1.8 mi Calm Calm - N/A   Clear
10:19 PM 62.1 °F 61.0 °F 96% 29.68 in 3.0 mi WSW 4.6 mph - N/A   Clear
10:54 PM 62.1 °F 61.0 °F 96% 29.68 in 10.0 mi SW 4.6 mph - N/A   Clear
11:54 PM 62.6 °F 62.6 °F 100% 29.68 in 10.0 mi SW 6.9 mph - N/A   Clear